カタログに戻る

FENGYUN 1C DEB

運用中SSO
NORAD 31361·DEBRIS·🇨🇳 China

打ち上げ May 10, 1999 から Taiyuan Satellite Launch Center

Loading…

次のパス (今後24時間)

TLE

最新Source: Space-Track

元期: Sep 12, 2026, 08:54 UTC

1 31361U 99025BRR 26255.37128985  .00000115  00000-0  76324-4 0  9995
2 31361  98.5843 226.0989 0045213   3.0842 357.0604 14.17877738  4227

AllMySatでFENGYUN 1C DEBをリアルタイム追跡

Download on the App Store